shoulder
new_line
new_line
first
second
third
Al di la della Luna; Beyond the Moon; Astrophotography; Astrofotografia; Danilo Pivato
 
 
         
         
2024

Orbital Elements

Epoch 2024 March  31.0 TT = JDT 2460400.5
T 2024 September  27.74711  TT                                                                Rudenko
q   0.3914505            (2000.0)                                    P               Q
z   -6.0002732           Peri.    308.49039         +0.36139404     +0.90085188
 +/- 0.0000079           Node     21.55993         +0.91854987     +0.29964917
e    1.0001069           Incl.     139.11213         -0.16018892      +0.31412779
 
       
Orbit diagram
         
2024.04.02
2024.04.16
2024.05.05
2024.05.31
2024.10.15
         
2024.10.20 105mm
2024.10.20 200mm
2024.10.31 APO Sekor 250mm
2024.11.01
2024.11.03
         
2025.04.05
2025.04.08
2025.04.09
2025.04.11
2025.04.12
         
c
     
2025.04.22
2025.04.22
     
         
         
         
         

 

       
 
Since: 01/01/2004
 
           
Since: 01/11/2010